星链-34766(STARLINK-34766)

导读

STARLINK-34766是美国SpaceX公司星链计划的卫星,于2025年11月15日发射升空。星链项目旨在构建全球卫星互联网星座,该卫星加入后,进一步扩充了星链星座规模,可为全球尤其是偏远地区提供高速低延迟的宽带互联服务,推动全球网络覆盖与互联基础设施建设。

Basic Information
目录编号:
66505
目录名称:
STARLINK-34766
国际标识:
2025-263W
轨道中心:
EARTH
卫星名称:
星链-34766
卫星全名:
星链-34766(STARLINK-34766)
卫星状态:
在轨 (已飞行210 天)
发射日期:
2025-11-15 UTC
国别 :
美国 (US)
星等 :
--
Orbit Information
数据来源 国际轨道数据 AOE轨道数据
星历时间 2026-06-13T14:52:27+0800
5小时前
查看轨道信息
2026-06-10T06:00:00+0800
3天前
查看轨道信息
半长轴 6861.11km 6861.166km
偏心率 0.0002033 0.0001956
轨道倾角 43.001° 42.999°
近地点辐角 270.690° 276.216°
升交点赤经 170.429° 189.461°
平近点角 89.372° 250.813°
近地点 481.578km 481.686km
远地点 484.368km 484.372km
周期 94.265分钟 94.266分钟
每日圈数 15.276055 15.275868
Detailed Information
固有亮度:
5
最大亮度:
2.5
卫星平台:
Starlink V1.0
覆盖范围:
全球
运营商:
太空探索技术公司
运营商所在国:
美国
制造商(研发单位):
太空探索技术公司
制造商所在国:
美国
使用方式:
暂无
Satellite Introduction
Starlink 计划是 SpaceX 推出的全球卫星互联网项目,通过发射低轨道卫星,为全球尤其是偏远地区提供高速、低延迟的互联网服务。自 2019 年起,Starlink 已部署数千颗卫星,旨在缩小全球数字鸿沟,推动互联网普及。该项目还为军事、航空等行业提供通信支持,带来广泛经济效益。
2D Orbit Map
3D Orbit Map
Orbit Altitude Analysis Chart
Orbit Inclination Analysis Chart
Orbit Comprehensive Analysis Chart
View Comprehensive Chart